Date,TemperatureHighF,TemperatureAvgF,TemperatureLowF,DewpointHighF,DewpointAvgF,DewpointLowF,HumidityHigh,HumidityAvg,HumidityLow,PressureMaxIn,PressureMinIn,WindSpeedMaxMPH,WindSpeedAvgMPH,GustSpeedMaxMPH,PrecipitationSumIn
2013-1-1,37.0,32.1,23.0,29.0,22.2,12.0,80,67,53,29.88,29.69,5,1,15,0.00
2013-1-2,31.0,22.2,15.0,17.0,11.5,7.0,76,63,53,30.05,29.85,3,1,10,0.00
2013-1-3,25.0,15.7,7.0,13.0,3.5,-3.0,79,59,35,30.09,29.96,2,0,7,0.00
2013-1-4,38.0,27.0,15.0,26.0,19.8,11.0,91,75,53,29.96,29.78,4,0,14,0.02
2013-1-5,41.0,31.8,23.0,26.0,22.6,20.0,89,70,49,30.23,29.82,3,0,10,0.05
2013-1-6,42.0,31.5,23.0,33.0,27.1,20.0,95,84,64,30.19,29.89,2,0,6,0.06
2013-1-7,40.0,30.8,24.0,32.0,26.6,23.0,95,85,61,30.37,29.92,4,0,10,0.02
2013-1-8,46.0,33.8,21.0,33.0,28.1,20.0,96,81,56,30.34,30.22,3,0,12,0.02
2013-1-9,44.0,35.1,24.0,40.0,31.1,23.0,96,86,71,30.36,29.97,3,0,9,0.01
2013-1-10,47.0,41.5,31.0,34.0,26.6,24.0,76,56,43,30.49,30.00,5,1,15,0.00
2013-1-11,42.0,34.2,26.0,36.0,29.7,23.0,96,84,71,30.47,30.18,1,0,5,0.12
2013-1-12,46.0,42.0,37.0,45.0,40.8,36.0,97,96,92,30.21,30.08,1,0,6,0.16
2013-1-13,52.0,46.8,42.0,51.0,45.8,41.0,97,97,96,30.12,29.96,3,0,9,0.01
2013-1-14,61.0,52.7,44.0,55.0,46.2,32.0,98,81,49,30.21,29.86,3,1,8,0.01
2013-1-15,43.0,38.0,34.0,37.0,32.2,29.0,95,80,65,30.26,30.16,2,0,7,0.05
2013-1-16,36.0,34.2,33.0,34.0,32.1,29.0,100,93,75,30.19,29.74,2,0,5,0.18
2013-1-17,42.0,35.9,31.0,34.0,30.0,20.0,97,80,62,30.04,29.80,3,0,10,0.24
2013-1-18,32.0,23.7,17.0,21.0,5.0,-3.0,73,45,31,30.43,29.99,4,2,14,0.01
2013-1-19,47.0,36.9,17.0,35.0,26.7,10.0,79,67,51,30.39,29.88,5,2,15,0.05
2013-1-20,55.0,44.3,30.0,38.0,30.0,11.0,78,58,39,29.89,29.51,5,2,20,0.01
2013-1-21,30.0,26.3,22.0,23.0,12.7,8.0,92,58,41,30.07,29.75,2,0,9,0.00
2013-1-22,26.0,21.7,14.0,23.0,10.9,0.0,93,65,39,30.02,29.69,4,1,11,0.00
2013-1-23,16.0,12.0,8.0,3.0,-2.9,-7.0,70,51,38,30.11,30.01,4,1,14,0.00
2013-1-24,19.0,11.7,4.0,-2.0,-5.6,-9.0,59,46,32,30.19,30.01,4,1,12,0.00
2013-1-25,25.0,17.0,8.0,15.0,-2.4,-8.0,86,43,27,30.28,30.01,3,1,10,0.00
2013-1-26,24.0,18.0,11.0,15.0,6.5,-3.0,90,63,36,30.18,29.95,3,1,10,0.00
2013-1-27,30.0,20.5,12.0,7.0,3.3,-1.0,69,48,33,30.42,30.18,4,1,10,0.00
2013-1-28,32.0,23.0,12.0,29.0,14.8,6.0,95,73,37,30.43,29.97,1,0,5,0.00
2013-1-29,34.0,31.6,28.0,34.0,30.3,27.0,100,95,92,30.17,29.95,1,0,4,0.13
2013-1-30,59.0,49.5,33.0,57.0,48.0,32.0,97,95,91,30.13,29.47,5,2,16,0.19
2013-1-31,59.0,41.3,33.0,57.0,27.2,18.0,94,58,44,29.55,29.36,5,2,15,0.86
2013-2-1,33.0,29.3,24.0,19.0,12.3,6.0,61,49,35,30.03,29.55,5,2,14,0.24
2013-2-2,30.0,24.8,18.0,17.0,10.4,4.0,66,54,39,30.22,30.01,3,1,11,0.00
2013-2-3,29.0,25.5,22.0,24.0,21.8,17.0,92,85,62,30.03,29.67,2,0,10,0.02
2013-2-4,31.0,25.1,20.0,21.0,14.1,8.0,90,65,42,29.91,29.67,5,2,14,0.01
2013-2-5,28.0,25.0,22.0,24.0,16.6,11.0,93,71,59,29.98,29.88,1,0,8,0.00
2013-2-6,39.0,31.1,26.0,29.0,22.2,7.0,94,72,42,30.23,29.87,3,1,10,0.05
2013-2-7,30.0,24.8,18.0,18.0,8.8,4.0,73,51,35,30.50,30.23,2,0,8,0.01
2013-2-8,33.0,31.1,25.0,32.0,28.0,18.0,97,88,72,30.45,29.57,6,2,22,0.06
2013-2-10,30.0,22.8,14.0,29.0,21.6,12.0,96,94,91,30.35,30.29,0,0,0,0.00
2013-2-11,45.0,30.9,12.0,44.0,29.7,10.0,98,96,91,30.33,29.55,0,0,1,0.00
2013-2-12,45.0,39.0,31.0,41.0,31.9,26.0,98,77,55,29.85,29.56,0,0,9,0.00
2013-2-13,44.0,34.0,25.0,28.0,26.1,22.0,92,75,51,29.84,29.63,0,0,0,0.00
2013-2-14,45.0,34.1,26.0,31.0,26.3,22.0,96,76,43,29.97,29.66,0,0,0,0.00
2013-2-15,50.0,36.2,24.0,38.0,31.5,23.0,97,85,51,29.99,29.88,3,0,9,0.05